This demonstration page uses our WeatherBlox Daily Observations layout. Learn more.

Left ArrowRight Arrow

34.74481, -87.66753

Hourly Observations for June 24, 2019

Temp ( °F °C ) Dew Point ( °F °C ) Humidity (%) Winds ( mph kmh ) Pressure ( in mb ) Visibility ( mi km ) Precip ( " mm )
12:24 am 00:24 Partly Cloudy with Nearby Thunderstorms 77 25 71 21.7 82 82 undefined N/A 29.98 1015 10 16 0.00 0.00
12:53 am 00:53 Mostly Cloudy with Nearby Thunderstorms 71 21.7 67 19.4 87 87 NNW 6 9 29.93 1014 10 16 0.02 0.51
1:00 am 01:00 Mostly Cloudy 71 21.7 67 19.4 87 87 N 3 6 29.92 1013 10 16 0.00 0.03
1:53 am 01:53 Partly Cloudy 73 22.8 68 20 84 84 undefined N/A 29.88 1012 10 16 0.01 0.25
2:53 am 02:53 Mostly Cloudy 71 21.7 67 19.4 87 87 E 3 6 29.85 1011 10 16 0.00 0.00
3:32 am 03:32 Mostly Cloudy 71 21.7 68 20 90 90 SE 6 9 29.86 1011 10 16 0.00 0.00
3:53 am 03:53 Cloudy 72 22.2 69 20.6 91 91 Calm 29.85 1011 10 16 0.00 0.00
4:53 am 04:53 Cloudy 73 22.8 69 20.6 87 87 Calm 29.85 1011 10 16 0.00 0.00
5:06 am 05:06 Cloudy 72 22.2 69 20.6 91 91 NW 7 11 29.85 1011 10 16 0.00 0.00
5:40 am 05:40 Mostly Cloudy 73 22.8 69 20.6 87 87 NNE 5 7 29.85 1011 10 16 0.00 0.00
5:53 am 05:53 Cloudy 73 22.8 70 21.1 90 90 E 3 6 29.84 1011 10 16 0.00 0.00
6:20 am 06:20 Cloudy 73 22.8 70 21.1 90 90 Calm 29.86 1011 10 16 0.00 0.00
6:53 am 06:53 Cloudy 74 23.3 71 21.7 91 91 ESE 6 9 29.84 1011 10 16 0.00 0.00
7:01 am 07:01 Cloudy with Nearby Thunderstorms 74 23.3 71 21.7 91 91 SSE 5 7 29.85 1011 10 16 0.00 0.00
7:16 am 07:16 Cloudy with Light Rain 75 23.9 72 22.2 90 90 SSE 5 7 29.85 1011 10 16 0.03 0.76
7:25 am 07:25 Mostly Cloudy with Nearby Thunderstorms 76 24.4 73 22.8 91 91 S 8 13 29.85 1011 10 16 0.03 0.76
7:34 am 07:34 Mostly Cloudy 78 25.6 74 23.3 87 87 S 10 17 29.84 1010 10 16 0.03 0.76
7:42 am 07:42 Mostly Cloudy 79 26.1 73 22.8 82 82 S 12 19 29.84 1010 10 16 0.03 0.76
7:53 am 07:53 Mostly Sunny 79 26.1 73 22.8 82 82 S 15 24 29.83 1010 10 16 0.03 0.76
8:53 am 08:53 Partly Cloudy with Light Rain 79 26.1 74 23.3 85 85 S 13 20 29.82 1010 10 16 0.01 0.25
9:53 am 09:53 Sunny 81 27.2 74 23.3 79 79 S 18 30 29.80 1009 10 16 0.00 0.03
10:53 am 10:53 Sunny 84 28.9 74 23.3 72 72 SSW 15 24 29.80 1009 10 16 0.00 0.00
11:53 am 11:53 Mostly Sunny 87 30.6 73 22.8 63 63 W 18 30 29.84 1011 10 16 0.00 0.00
12:53 pm 12:53 Mostly Sunny 87 30.6 69 20.6 55 55 W 16 26 29.87 1012 10 16 0.00 0.00
1:53 pm 13:53 Mostly Sunny 87 30.6 68 20 53 53 WNW 18 30 29.88 1012 10 16 0.00 0.00
2:53 pm 14:53 Partly Cloudy 88 31.1 67 19.4 50 50 WSW 15 24 29.88 1012 10 16 0.00 0.00
3:53 pm 15:53 Mostly Sunny 88 31.1 66 18.9 48 48 W 14 22 29.88 1012 10 16 0.00 0.00
4:53 pm 16:53 Partly Cloudy 85 29.4 67 19.4 55 55 W 15 24 29.88 1012 10 16 0.00 0.00
5:53 pm 17:53 Mostly Sunny 86 30 67 19.4 53 53 WSW 10 17 29.88 1012 10 16 0.00 0.00
6:53 pm 18:53 Sunny 85 29.4 65 18.3 51 51 W 14 22 29.89 1012 10 16 0.00 0.00
7:53 pm 19:53 Sunny 82 27.8 67 19.4 60 60 W 7 11 29.90 1013 10 16 0.00 0.00
8:53 pm 20:53 Clear 78 25.6 68 20 71 71 Calm 29.93 1013 10 16 0.00 0.00
9:53 pm 21:53 Clear 75 23.9 68 20 79 79 WSW 5 7 29.93 1014 10 16 0.00 0.00
10:53 pm 22:53 Clear 74 23.3 68 20 82 82 WSW 6 9 29.94 1014 10 16 0.00 0.00
11:53 pm 23:53 Clear 74 23.3 68 20 82 82 W 7 11 29.95 1014 10 16 0.00 0.00

Powered by AerisWeather